Dallesport, WA

9:48 PM PST on February 12, 2016 (GMT -0800)
Columbia Gorge Regional-The Dalles

Weather History for KDLS - July, 2013

Change the Weather History Date:

Tuesday, July 16, 2013

  Actual Average Record
Temperature  
Mean Temperature 76 °F -  
Max Temperature 95 °F 87 °F 105 °F (1960)
Min Temperature 59 °F 59 °F 49 °F (1963)
Cooling Degree Days 11    
Growing Degree Days 26 (Base 50)    
Moisture  
Dew Point 45 °F    
Average Humidity 34    
Maximum Humidity 56    
Minimum Humidity 16    
Precipitation  
Precipitation 0.00 in - - ()
Sea Level Pressure  
Sea Level Pressure 29.83 in    
Wind  
Wind Speed 4 mph (NW)    
Max Wind Speed 16 mph    
Max Gust Speed 23 mph    
Visibility 10 miles    
Events      
Averages and records for this station are not official NWS values.
T = Trace of Precipitation, MM = Missing Value Source: NWS Daily Summary

Daily Weather History Graph

Daily Weather History Graph

Search for Another Location

Airport or City:

Trip Planner

Search our weather history database for the weather conditions in past years. The results will help you decide how hot, cold, wet, or windy it might be!

Date:

Astronomy

Jul. 16, 2013 Rise Set
Actual Time 5:31 AM PDT 8:49 PM PDT
Civil Twilight 4:54 AM PDT 9:25 PM PDT
Nautical Twilight 4:07 AM PDT 10:13 PM PDT
Astronomical Twilight 3:07 AM PDT 11:12 PM PDT
Moon 2:30 PM PDT (7/16) 12:13 AM PDT (7/16)
Length of Visible Light 16h 30m
Length of Day
15h 18m
First Quarter, 57% of the Moon is Illuminated
Jul 16
First Quarter
Jul 22
Full
Jul 29
Last Quarter
Aug 6
New
Aug 14
First Quarter

Hourly Weather History & Observations

Time (PDT) Temp. Dew Point Humidity Pressure Visibility Wind Dir Wind Speed Gust Speed Precip Events Conditions
12:53 AM 66.0 °F 42.1 °F 42% 29.86 in 10.0 mi Calm Calm - N/A   Clear
1:53 AM 64.9 °F 44.1 °F 47% 29.87 in 10.0 mi East 5.8 mph - N/A   Clear
2:53 AM 62.1 °F 42.1 °F 48% 29.87 in 10.0 mi ENE 4.6 mph - N/A   Clear
3:53 AM 61.0 °F 45.0 °F 56% 29.87 in 10.0 mi Calm Calm - N/A   Clear
4:53 AM 61.0 °F 42.1 °F 50% 29.88 in 10.0 mi Calm Calm - N/A   Clear
5:53 AM 59.0 °F 41.0 °F 51% 29.89 in 10.0 mi ESE 4.6 mph - N/A   Clear
6:53 AM 61.0 °F 45.0 °F 56% 29.89 in 10.0 mi Calm Calm - N/A   Clear
7:53 AM 66.9 °F 45.0 °F 45% 29.89 in 10.0 mi Calm Calm - N/A   Clear
8:53 AM 73.0 °F 42.1 °F 33% 29.89 in 10.0 mi Calm Calm - N/A   Clear
9:53 AM 79.0 °F 42.1 °F 27% 29.90 in 10.0 mi Calm Calm - N/A   Clear
10:53 AM 82.9 °F 42.1 °F 24% 29.84 in 10.0 mi WNW 3.5 mph - N/A   Clear
11:53 AM 86.0 °F 39.9 °F 20% 29.82 in 10.0 mi West 4.6 mph - N/A   Clear
12:53 PM 90.0 °F 39.9 °F 17% 29.81 in 10.0 mi Calm Calm - N/A   Clear
1:53 PM 90.0 °F 41.0 °F 18% 29.80 in 10.0 mi West 5.8 mph - N/A   Clear
2:53 PM 91.9 °F 39.0 °F 16% 29.78 in 10.0 mi NW 8.1 mph - N/A   Clear
3:53 PM 93.0 °F 42.1 °F 17% 29.75 in 10.0 mi NW 12.7 mph - N/A   Clear
4:53 PM 93.0 °F 43.0 °F 18% 29.75 in 10.0 mi NW 8.1 mph - N/A   Clear
5:53 PM 88.0 °F 48.0 °F 25% 29.75 in 10.0 mi NNW 13.8 mph - N/A   Clear
6:53 PM 84.9 °F 46.9 °F 27% 29.76 in 10.0 mi NW 12.7 mph - 0.00 in   Clear
7:53 PM 84.0 °F 46.0 °F 26% 29.76 in 10.0 mi NW 11.5 mph - N/A   Clear
8:53 PM 81.0 °F 50.0 °F 34% 29.78 in 10.0 mi NW 11.5 mph - N/A   Clear
9:53 PM 79.0 °F 53.1 °F 40% 29.80 in 10.0 mi WNW 9.2 mph 16.1 mph N/A   Clear
10:53 PM 78.1 °F 55.0 °F 45% 29.82 in 10.0 mi NW 9.2 mph 23.0 mph N/A   Clear
11:53 PM 79.0 °F 52.0 °F 39% 29.84 in 10.0 mi NW 16.1 mph 23.0 mph N/A   Clear